Location: Marse
(42.1502°N, 110.9866°W)
Time: 22:47:33
(UTC+00:00)

QB50P2 - Pass Details

Date: 08 July 2022
Orbit: 590 x 605 km, 97.9° (Epoch: 18 August)

Event Time Altitude Azimuth Distance (km) Brightness Sun altitude
Rises 07:47:00 0° 30° (NNE) 2,866 ? -25.3°
Reaches altitude 10° 07:49:48 10° 49° (NE) 1,959 ? -25.2°
Enters shadow 07:52:41 18° 92° (E) 1,503 ? -25.2°
